Content
SEND FEEDBACK

Daily
Averages
Monthly
Summary
Canada

MONTREAL TRUDEAU AIRPORT, QUEBEC


Home > North America > Canada > Quebec
Elevation: 118 feet     Latitude: 45 28N     Longitude: 73 45W

WEATHER
 
SELECT A DAY
Number of Records: 203,406;   Date Range: 1/1/95 - 12/19/14
 
SHARE

PRINT THIS DATA

[ ← Previous Day ]
WEATHER ALMANAC - DECEMBER 31, 2013
[ Next Day → ]
[ °C ]   °F
Weather ElementAverageHighLow
Temperature1 °F5 °F (2:00 pm)-4 °F (10:00 pm)
Dewpoint-4.6 °F-0.4 °F (4:00 pm)-8 °F (1:00 am)
Humidity76.4 %85 % (8:00 am)56 % (1:00 am)
Barometer30.12 in30.25 in (1:00 am)30.03 in (4:36 pm)
Wind Speed6.8 mph11.5 mph (5:00 pm)
Weather ElementAverage
Visibility9.8 mi
Wind DirectionSSE (155.9 °)

Weather ElementTotal
Precipitation---
Heating Degree Days64.5 (Base 65)
Averaged from 34 records on December 31, 2013
WEATHER CONDITIONS BREAKOUT
WIND DIRECTION BREAKOUT
WEATHER BY HOUR - DECEMBER 31, 2013
[ °C ]   °F
Local TimeTemperatureDewpointHumidityBarometerVisibilityWind DirectionWind SpeedGust SpeedPrecipitationEventsConditions
1:00 AM0.0 °F-8.0 °F56 %30.25 in15.0 miSSW (200°)1.2 mphOvercast
1:00 AM1.4 °F-7.6 °F66 %30.25 in15.0 miCalmOvercast
2:00 AM-0.4 °F-7.6 °F72 %30.25 in15.0 miVariable2.3 mphOvercast
3:00 AM-0.4 °F-7.6 °F72 %30.25 in15.0 miCalmOvercast
4:00 AM-0.4 °F-7.6 °F72 %30.22 in15.0 miWNW (290°)2.3 mphMostly Cloudy
5:00 AM-0.4 °F-5.8 °F78 %30.20 in15.0 miNorth (350°)3.5 mphOvercast
6:00 AM-0.4 °F-7.6 °F72 %30.18 in15.0 miNNE (30°)8.1 mphOvercast
7:00 AM-0.4 °F-7.6 °F72 %30.18 in15.0 miNorth (10°)5.8 mphOvercast
7:00 AM-1.0 °F-7.0 °F66 %30.18 in15.0 miNNE (20°)5.8 mphOvercast
8:00 AM-2.2 °F-5.8 °F85 %30.17 in15.0 miNorth (360°)6.9 mphOvercast
9:00 AM-0.4 °F-5.8 °F78 %30.16 in30.0 miNNE (20°)8.1 mphOvercast
10:00 AM-0.4 °F-5.8 °F78 %30.15 in15.0 miNNE (30°)8.1 mphOvercast
11:00 AM1.4 °F-4.0 °F78 %30.13 in15.0 miNorth (10°)8.1 mphSnowLight Snow
12:00 PM3.2 °F-4.0 °F72 %30.09 in10.0 miNE (40°)9.2 mphSnowLight Snow
1:00 PM4.0 °F-3.0 °F62 %30.07 in7.0 miNE (40°)8.1 mphSnowLight Snow
1:00 PM3.2 °F-2.2 °F78 %30.07 in8.0 miNE (40°)6.9 mphSnowLight Snow
2:00 PM5.0 °F-4.0 °F66 %30.04 in4.0 miENE (70°)9.2 mphSnowLight Snow
2:48 PM5.0 °F-2.2 °F72 %30.04 in2.5 miNE (50°)9.2 mphSnowLight Snow
3:00 PM3.2 °F-2.2 °F78 %30.04 in2.0 miNE (50°)9.2 mphSnowLight Snow
4:00 PM5.0 °F-0.4 °F78 %30.04 in2.5 miNE (40°)9.2 mphSnowLight Snow
4:36 PM3.2 °F-0.4 °F85 %30.03 in1.5 miNE (40°)10.4 mphSnowLight Snow
5:00 PM3.2 °F-2.2 °F78 %30.04 in1.2 miNE (40°)11.5 mphSnowLight Snow
6:00 PM3.2 °F-0.4 °F85 %30.04 in1.2 miNNE (20°)9.2 mphSnowLight Snow
6:22 PM3.2 °F-2.2 °F78 %30.06 in2.5 miNorth (350°)9.2 mphSnowLight Snow
6:37 PM1.4 °F-2.2 °F85 %30.07 in1.5 miNNW (340°)8.1 mphSnowLight Snow
6:52 PM1.4 °F-2.2 °F85 %30.07 in4.0 miNorth (350°)8.1 mphSnowLight Snow
7:00 PM1.4 °F-2.2 °F85 %30.08 in3.0 miNorth (350°)8.1 mphSnowLight Snow
7:00 PM2.0 °F-3.0 °F70 %30.08 in3.0 miNorth (350°)8.1 mphSnowLight Snow
7:17 PM1.4 °F-4.0 °F78 %30.09 in5.0 miNorth (350°)9.2 mphSnowLight Snow
8:00 PM-0.4 °F-5.8 °F78 %30.10 in8.0 miNNW (330°)8.1 mphSnowLight Snow
8:40 PM-2.2 °F-5.8 °F85 %30.11 in10.0 miNW (320°)5.8 mphScattered Clouds
9:00 PM-2.2 °F-5.8 °F85 %30.12 in15.0 miNW (320°)3.5 mphPartly Cloudy
10:00 PM-4.0 °F-7.6 °F85 %30.14 in15.0 miWest (260°)3.5 mphPartly Cloudy
11:00 PM-4.0 °F-7.6 °F85 %30.15 in15.0 miSW (230°)5.8 mphPartly Cloudy
Hourly data recorded from CYUL, located miles away from Montreal Trudeau Airport, Quebec







STORIES FROM OUR PARTNERS